Location: Marcé
(47.5801°N, 0.3280°W)
Time: 02:55:40
(UTC+01:00)

Vanguard 1 - Pass Details

Date: 06 December 2021
Orbit: 652 x 3830 km, 34.2° (Epoch: 21 January)

Event Time Altitude Azimuth Distance (km) Brightness Sun altitude
Rises 21:49:15 0° 195° (SSW) 6,387 14.2 -45.8°
Reaches altitude 10° 21:54:12 10° 183° (S) 5,817 13.8 -46.6°
Enters shadow 21:55:56 13° 178° (S) 5,663 13.7 -46.9°
